This is the latest recevied weather packets stored in our database for station/object VK3ABC-13. If no packets are shown the sender has not sent any weather packets the latest 10 day(s).
| Time | Temp. | Humidity | Pressure | Rain* | Wind** | Luminosity | Snow |
|---|---|---|---|---|---|---|---|
| 1777419612 | 16.67° C | 87% | 1026.6 hPa | 0 mm | - | 338 W/m² | - |
| 1777417214 | 15.56° C | 93% | 1026.7 hPa | 0 mm | - | 204 W/m² | - |
| 1777416013 | 13.89° C | 93% | 1026.6 hPa | 0 mm | - | 237 W/m² | - |
| 1777415112 | 12.22° C | 92% | 1026.6 hPa | 0 mm | - | 139 W/m² | - |
| 1777413614 | 10.56° C | 91% | 1026.1 hPa | 0 mm | - | 98 W/m² | - |
| 1777413013 | 10.56° C | 91% | 1026 hPa | 0 mm | - | 44 W/m² | - |
| 1777410612 | 10.56° C | 91% | 1025.6 hPa | 0 mm | - | 12 W/m² | - |
| 1777404911 | 11.11° C | 90% | 1025 hPa | 0 mm | - | 0 W/m² | - |
| 1777404311 | 11.11° C | 90% | 1024.9 hPa | 0 mm | - | 0 W/m² | - |
| 1777402813 | 11.11° C | 90% | 1024.6 hPa | 0 mm | - | 0 W/m² | - |
| 1777402511 | 11.11° C | 89% | 1024.5 hPa | 0 mm | - | 0 W/m² | - |
| 1777399812 | 11.11° C | 89% | 1024.3 hPa | 0 mm | - | 0 W/m² | - |
| 1777399213 | 11.67° C | 89% | 1024.3 hPa | 0 mm | - | 0 W/m² | - |
| 1777397711 | 11.67° C | 89% | 1024.3 hPa | 0 mm | - | 0 W/m² | - |
| 1777397414 | 11.67° C | 89% | 1024.2 hPa | 0 mm | - | 0 W/m² | - |
| 1777396511 | 12.22° C | 89% | 1024.2 hPa | 0 mm | - | 0 W/m² | - |
| 1777395911 | 12.22° C | 88% | 1024.2 hPa | 0 mm | - | 0 W/m² | - |
| 1777395311 | 12.22° C | 88% | 1024.1 hPa | 0 mm | - | 0 W/m² | - |
| 1777395012 | 12.22° C | 88% | 1024.1 hPa | 0 mm | - | 0 W/m² | - |
| 1777387511 | 13.33° C | 86% | 1023.9 hPa | 0 mm | - | 0 W/m² | - |
| 1777385407 | 13.89° C | 86% | 1023.5 hPa | 0 mm | - | 0 W/m² | - |
| 1777383013 | 13.33° C | 85% | 1023.5 hPa | 0 mm | - | 0 W/m² | - |
| 1777382711 | 13.33° C | 85% | 1023.3 hPa | 0 mm | - | 0 W/m² | - |
| 1777381812 | 13.89° C | 84% | 1023.1 hPa | 0 mm | - | 0 W/m² | - |
| 1777379711 | 14.44° C | 83% | 1022.5 hPa | 0 mm | - | 0 W/m² | - |
* Rain latest hour (hover to see other rain measurements)
** Current wind speed in m/s (hover to see current wind gust speed)